[[{"header":{"parameterUnit":"m.s-1","parameterCategory":1,"la1":30.2991,"la2":30.254,"lo1":-89.0895,"lo2":-89.0444,"dy":0.0017,"dx":0.0017,"nx":28,"ny":28,"refTime":"2025-11-24T09:00:00:Z","depth":0,"parameterNumber":2,"parameterNumberName":"U-component_of_WINDS"},"data":[0,0,0,0,0,0,0,0,0,0,0,0,0,0,0,0,0,0,0,0,0,0,0,0,0,0,0,0,0,0,0,0,0,0,0,0,0,0,0,0,0,0,0,0,0,0,0,0,0,0,0,0,0,0,0,0,0,0,-4.5567,-4.5568,0,-4.564,-4.5641,-4.5641,-4.558,-4.5578,-4.5575,-4.5573,-4.5644,-4.5648,-4.5652,0,0,0,0,0,0,0,0,0,0,0,0,0,-4.5375,-4.5378,-4.5567,-4.5568,-4.5569,-4.564,-4.5641,-4.5642,-4.5581,-4.5578,-4.5574,-4.5572,-4.5643,-4.5648,-4.5653,0,0,0,0,0,0,0,0,0,0,0,0,0,-4.5454,-4.538,-4.5567,-4.5547,-4.5546,-4.564,-4.5641,-4.5642,-4.5581,-4.5577,-4.5574,-4.557,-4.5641,-4.5647,-4.5654,-4.5769,0,0,-4.5673,-4.5676,0,0,0,0,0,0,0,0,-4.5449,-4.5461,-4.5549,-4.5549,-4.5548,-4.5597,-4.5599,-4.5685,-4.5582,-4.5568,-4.5573,-4.5568,-4.5631,-4.5638,-4.566,-4.5773,-4.5776,-4.5674,-4.5678,-4.568,-4.5682,0,0,0,0,0,0,0,-4.5444,-4.5457,-4.5596,-4.5551,-4.555,-4.5534,-4.5541,-4.5615,-4.562,-4.5569,-4.5565,-4.5574,-4.563,-4.5654,-4.5661,-4.5777,-4.5673,-4.5679,-4.5683,-4.5686,-4.5989,-4.5993,0,0,0,0,0,0,-4.5441,-4.5453,-4.5593,-4.5598,-4.5488,-4.5541,-4.5549,-4.5585,-4.5619,-4.5621,-4.5577,-4.5571,-4.5645,-4.5654,-4.5664,-4.5801,-4.568,-4.5686,-4.569,-4.5984,-4.599,-4.5994,0,0,0,0,0,0,-4.5437,-4.5454,-4.5591,-4.5525,-4.5541,-4.5548,-4.559,-4.5589,-4.5612,-4.5626,-4.5626,-4.5601,-4.5642,-4.5655,-4.5744,-4.5802,-4.5689,-4.5695,-4.5979,-4.5986,-4.5992,-4.6076,0,0,0,0,0,0,-4.5432,-4.5453,-4.5497,-4.5526,-4.5545,-4.567,-4.5593,-4.5593,-4.5624,-4.5616,-4.5648,-4.5649,-4.564,-4.5735,-4.575,-4.5809,-4.57,-4.5974,-4.5982,-4.599,-4.6068,-4.6085,-4.6099,0,0,0,0,0,-4.5425,-4.5517,-4.5499,-4.5517,-4.56,-4.5673,-4.5684,-4.5673,-4.5629,-4.5673,-4.5682,-4.5648,-4.5795,-4.5744,-4.5761,-4.5823,-4.597,-4.598,-4.5989,-4.6061,-4.6081,-4.6099,0,0,0,0,0,0,-4.5493,-4.552,-4.5501,-4.5606,-4.5638,-4.5663,-4.5718,-4.5694,-4.5739,-4.573,-4.5713,-4.5721,-4.5815,-4.5828,-4.5772,-4.5937,-4.5875,-4.5889,-4.5924,-4.5944,-4.5959,-4.5952,-4.5705,0,0,0,0,0,-4.552,-4.5578,-4.5599,-4.5689,-4.5707,-4.571,-4.5742,-4.5731,-4.5763,-4.5776,-4.5791,-4.5823,-4.5876,-4.5911,-4.5961,-4.6072,-4.6077,-4.6123,-4.6138,-4.615,-4.6161,-4.622,-4.624,-4.6025,-4.6025,-4.6025,0,0,-4.5576,-4.5599,-4.5636,-4.5704,-4.5727,-4.5787,-4.5722,-4.5788,-4.5831,-4.5785,-4.587,-4.5883,-4.5918,-4.6019,-4.6063,-4.6033,-4.6222,-4.6163,-4.6172,-4.6176,-4.6232,-4.6252,-4.627,-4.6032,-4.603,-4.6029,0,0,-4.5709,-4.5733,-4.581,-4.5836,-4.5874,-4.5876,-4.5895,-4.5925,-4.5932,-4.6018,-4.5984,-4.6037,-4.6129,-4.6155,-4.618,-4.6327,-4.6297,-4.6344,-4.6422,-4.648,-4.6497,-4.6512,-4.6563,-4.6581,-4.6355,-4.6356,-4.6356,0,-4.5774,-4.5863,-4.5853,-4.5922,-4.5952,-4.5916,-4.5994,-4.602,-4.6071,-4.6093,-4.6058,-4.6174,-4.6195,-4.6301,-4.6337,-4.6359,-4.6379,-4.6338,-4.6496,-4.6511,-4.6524,-4.6572,-4.6592,-4.6361,-4.636,-4.636,-4.6359,0,-4.594,-4.6003,-4.6061,-4.6113,-4.6151,-4.6224,-4.6225,-4.6264,-4.6251,-4.6257,-4.6345,-4.637,-4.6424,-4.6449,-4.6436,-4.6554,-4.6533,-4.6498,-4.6435,-4.655,-4.6595,-4.6613,-4.6368,-4.6366,-4.6365,-4.6364,0,0,-4.6113,-4.6161,-4.6182,-4.6206,-4.6246,-4.6294,-4.6367,-4.6421,-4.6454,-4.6493,-4.6552,-4.6633,-4.6601,-4.663,-4.662,-4.6672,-4.6785,-4.663,-4.6631,-4.6656,-4.6915,-4.6938,-4.696,-4.6768,-4.6771,-4.6774,-4.6911,0,-4.6245,-4.6371,-4.6366,-4.6483,-4.654,-4.6509,-4.6572,-4.6604,-4.6612,-4.6662,-4.6672,-4.6728,-4.6683,-4.67,-4.675,-4.6761,-4.6836,-4.6751,-4.6821,-4.6823,-4.6809,-4.6983,-4.7008,-4.7136,-4.6928,-4.6931,-4.6934,0,-4.6415,-4.6461,-4.6584,-4.6617,-4.6641,-4.6698,-4.6748,-4.6797,-4.6833,-4.6835,-4.687,-4.6853,-4.6926,-4.6864,-4.6964,-4.6906,-4.6935,-4.6945,-4.695,-4.6953,-4.6882,-4.6988,-4.7176,-4.7194,-4.6961,-4.6959,-4.6957,0,-4.6526,-4.6618,-4.6704,-4.6725,-4.6767,-4.6807,-4.6827,-4.6859,-4.6892,-4.6937,-4.6958,-4.7011,-4.7038,-4.7079,-4.7077,-4.7032,-4.7178,-4.7116,-4.718,-4.718,-4.7208,-4.7206,-4.7401,-4.7233,-4.7233,-4.7233,-4.7232,0,-4.6672,-4.6748,-4.6754,-4.6806,-4.6891,-4.6885,-4.6969,-4.6984,-4.7014,-4.7068,-4.7046,-4.7097,-4.7093,-4.7145,-4.7144,-4.7226,-4.724,-4.7243,-4.7241,-4.7243,-4.7242,-4.7258,-4.7248,-4.7238,-4.7237,-4.7236,-4.7235,0,-4.6807,-4.6815,-4.6906,-4.6939,-4.695,-4.701,-4.7038,-4.7088,-4.7097,-4.7166,-4.7182,-4.7195,-4.7255,-4.7259,-4.7328,-4.7327,-4.7427,-4.7417,-4.7414,-4.7411,-4.7474,-4.7467,-4.7683,-4.7711,-4.7529,-4.7531,-4.7532,0,-4.6898,-4.6956,-4.6997,-4.7032,-4.7054,-4.7112,-4.7146,-4.7144,-4.7181,-4.7228,-4.7272,-4.7331,-4.7377,-4.7476,-4.7491,-4.7544,-4.7533,-4.7606,-4.754,-4.7541,-4.7531,-4.7526,-4.7531,-4.7616,-4.7619,-4.762,-4.7622,0,-4.7058,-4.7059,-4.7111,-4.7165,-4.7207,-4.7249,-4.7288,-4.7318,-4.7321,-4.7364,-4.7426,-4.7463,-4.7535,-4.7593,-4.7646,-4.7665,-4.7643,-4.7643,-4.766,-4.766,-4.7655,-4.7656,-4.7445,-4.7637,-4.7635,-4.7634,-4.7633,-4.7633,-4.7171,-4.7222,-4.7258,-4.7317,-4.7347,-4.7384,-4.7433,-4.7449,-4.7501,-4.756,-4.7556,-4.7625,-4.7661,-4.773,-4.7754,-4.7807,-4.7782,-4.7808,-4.7814,-4.7819,-4.7824,-4.7651,-4.7817,-4.7817,-4.7817,-4.7816,-4.7816,0,-4.7327,-4.735,-4.7405,-4.7461,-4.7507,-4.7486,-4.7529,-4.7569,-4.763,-4.7666,-4.7713,-4.7785,-4.7843,-4.7864,-4.792,-4.7959,-4.795,-4.7973,-4.7968,-4.7973,-4.7845,-4.7823,-4.7979,-4.7979,-4.7979,-4.7979,-4.7979,-4.7979,-4.7413,-4.7497,-4.7504,-4.7602,-4.7625,-4.7692,-4.7719,-4.7753,-4.7782,-4.7864,-4.7912,-4.7927,-4.7957,-4.8016,-4.8067,-4.8072,-4.8092,-4.8119,-4.8119,-4.7998,-4.7982,-4.7966,-4.7945,-4.8124,-4.8124,-4.8242,-4.8243,-4.8244]},{"header":{"parameterUnit":"m.s-1","parameterCategory":1,"la1":30.2991,"la2":30.254,"lo1":-89.0895,"lo2":-89.0444,"dy":0.0017,"dx":0.0017,"nx":28,"ny":28,"refTime":"2025-11-24T09:00:00:Z","depth":0,"parameterNumber":3,"parameterNumberName":"V-component_of_WINDS"},"data":[0,0,0,0,0,0,0,0,0,0,0,0,0,0,0,0,0,0,0,0,0,0,0,0,0,0,0,0,0,0,0,0,0,0,0,0,0,0,0,0,0,0,0,0,0,0,0,0,0,0,0,0,0,0,0,0,0,0,1.6432,1.6433,0,1.6513,1.6514,1.6515,1.6524,1.6523,1.6522,1.6521,1.6601,1.6604,1.6607,0,0,0,0,0,0,0,0,0,0,0,0,0,1.6285,1.6288,1.6432,1.6433,1.6434,1.6513,1.6514,1.6515,1.6524,1.6523,1.6522,1.6521,1.66,1.6603,1.6607,0,0,0,0,0,0,0,0,0,0,0,0,0,1.6356,1.6289,1.6432,1.6448,1.645,1.6513,1.6514,1.6515,1.6524,1.6523,1.6522,1.6521,1.6599,1.6603,1.6607,1.6658,0,0,1.662,1.6622,0,0,0,0,0,0,0,0,1.6352,1.6361,1.6445,1.6447,1.645,1.6507,1.6491,1.6563,1.6524,1.6496,1.6521,1.652,1.657,1.6577,1.6595,1.6662,1.6665,1.6621,1.6623,1.6625,1.6626,0,0,0,0,0,0,0,1.6347,1.6358,1.6464,1.6446,1.6449,1.6451,1.646,1.6505,1.6539,1.6498,1.6499,1.6509,1.6572,1.6591,1.6597,1.6666,1.6621,1.6625,1.6627,1.6629,1.6784,1.6785,0,0,0,0,0,0,1.6339,1.6353,1.6461,1.6466,1.6397,1.6455,1.6465,1.649,1.6538,1.6545,1.651,1.6509,1.6584,1.6592,1.66,1.6665,1.6625,1.6629,1.6632,1.6782,1.6784,1.6786,0,0,0,0,0,0,1.6336,1.6349,1.6458,1.641,1.6424,1.6459,1.6487,1.6492,1.6511,1.6547,1.6553,1.6523,1.6583,1.6593,1.6645,1.6668,1.6631,1.6635,1.678,1.6783,1.6785,1.6795,0,0,0,0,0,0,1.6332,1.6347,1.6367,1.6411,1.6427,1.6502,1.6488,1.6495,1.6519,1.6519,1.6561,1.6567,1.6583,1.6638,1.6649,1.6673,1.6638,1.6778,1.6781,1.6784,1.6793,1.6797,1.6801,0,0,0,0,0,1.6326,1.6365,1.6368,1.6381,1.6452,1.6503,1.6513,1.6531,1.6521,1.6541,1.6565,1.6566,1.6664,1.6643,1.6656,1.6681,1.6777,1.6781,1.6784,1.6791,1.6796,1.6801,0,0,0,0,0,0,1.632,1.637,1.6374,1.6428,1.6462,1.6505,1.653,1.6536,1.6572,1.657,1.6591,1.66,1.6651,1.6671,1.6648,1.6735,1.6719,1.6725,1.672,1.6726,1.673,1.6725,1.6642,0,0,0,0,0,1.6326,1.6363,1.6405,1.6449,1.6466,1.6495,1.6518,1.653,1.6565,1.6579,1.6606,1.664,1.6678,1.6703,1.674,1.6796,1.6807,1.682,1.6824,1.6827,1.6832,1.6867,1.6874,1.6797,1.6797,1.6797,0,0,1.6336,1.6368,1.639,1.6448,1.6476,1.6515,1.6507,1.6548,1.6577,1.6585,1.6636,1.6657,1.6696,1.6751,1.6776,1.6769,1.6857,1.6832,1.6834,1.6838,1.6871,1.6878,1.6885,1.6799,1.6799,1.6798,0,0,1.6376,1.6403,1.6444,1.6473,1.6516,1.6536,1.6546,1.6589,1.6605,1.6657,1.6664,1.67,1.6765,1.6793,1.6816,1.6872,1.6875,1.6883,1.6906,1.6939,1.6945,1.6951,1.6973,1.698,1.6888,1.6888,1.6888,0,1.6383,1.6443,1.6464,1.6507,1.6533,1.6544,1.6587,1.6613,1.6665,1.6683,1.6675,1.676,1.6786,1.685,1.6864,1.6881,1.6895,1.6879,1.6943,1.6948,1.6954,1.6975,1.6983,1.6889,1.6889,1.6889,1.6889,0,1.6452,1.6494,1.6522,1.6575,1.6604,1.6646,1.6674,1.6701,1.6712,1.6733,1.6788,1.6821,1.6867,1.6883,1.6892,1.6948,1.6943,1.6938,1.6923,1.6962,1.6983,1.6991,1.6891,1.689,1.689,1.689,0,0,1.6488,1.6555,1.6565,1.6591,1.6641,1.6673,1.6717,1.6764,1.6788,1.6824,1.6863,1.692,1.6918,1.6944,1.6957,1.6986,1.7032,1.6978,1.6979,1.6989,1.7099,1.7103,1.7112,1.7034,1.7036,1.7037,1.7097,0,1.6535,1.6614,1.6636,1.6703,1.6744,1.6757,1.6795,1.683,1.6852,1.689,1.6914,1.6956,1.6948,1.6964,1.6994,1.702,1.7054,1.7015,1.7071,1.7072,1.7062,1.7123,1.7127,1.7181,1.7105,1.7106,1.7107,0,1.66,1.6641,1.6712,1.6761,1.6779,1.6813,1.686,1.6895,1.6936,1.6951,1.6982,1.6994,1.7041,1.7023,1.709,1.7063,1.7087,1.7104,1.7107,1.7113,1.7093,1.7133,1.7199,1.7208,1.7119,1.7118,1.7117,0,1.6622,1.6694,1.6748,1.6769,1.6826,1.6851,1.6875,1.6915,1.6944,1.6985,1.7004,1.7048,1.7073,1.7108,1.7132,1.7117,1.7198,1.7181,1.7212,1.7212,1.7229,1.7227,1.7301,1.7242,1.7242,1.7242,1.7241,0,1.6673,1.6717,1.676,1.6792,1.6843,1.6869,1.6918,1.6943,1.6979,1.7018,1.7031,1.7067,1.7096,1.7136,1.7155,1.7209,1.7219,1.7233,1.7238,1.7233,1.7231,1.7249,1.7247,1.7244,1.7243,1.7243,1.7243,0,1.6706,1.6736,1.6796,1.6846,1.686,1.6895,1.6939,1.6972,1.6996,1.7045,1.7058,1.7095,1.7144,1.7171,1.7231,1.7244,1.7305,1.7307,1.7292,1.7294,1.7324,1.7322,1.7413,1.7428,1.7357,1.7358,1.7358,0,1.6737,1.6772,1.6827,1.6855,1.6881,1.6925,1.6955,1.6983,1.7013,1.7065,1.7092,1.7142,1.7184,1.7261,1.7293,1.734,1.7344,1.7373,1.7351,1.7347,1.7348,1.7346,1.7351,1.7377,1.7378,1.7378,1.7379,0,1.679,1.6804,1.6847,1.6897,1.6933,1.6973,1.7012,1.7034,1.7069,1.7103,1.7154,1.7186,1.725,1.73,1.7351,1.7376,1.7384,1.7386,1.7396,1.7391,1.7382,1.739,1.7304,1.7383,1.7383,1.7383,1.7382,1.7382,1.6824,1.6857,1.6903,1.6952,1.6985,1.7023,1.7058,1.7088,1.7131,1.7186,1.72,1.7254,1.7298,1.7367,1.7394,1.7438,1.7432,1.7446,1.745,1.7453,1.7456,1.7375,1.7446,1.7446,1.7446,1.7446,1.7446,0,1.688,1.6911,1.6956,1.7012,1.7051,1.7057,1.7102,1.7135,1.7183,1.7223,1.7265,1.7326,1.7375,1.7413,1.7464,1.7492,1.7497,1.7504,1.7503,1.751,1.7456,1.7443,1.75,1.75,1.75,1.75,1.75,1.75,1.6913,1.6971,1.6991,1.7066,1.7097,1.7152,1.7177,1.7213,1.7246,1.7314,1.7356,1.7381,1.7421,1.7476,1.7522,1.7532,1.7551,1.7559,1.7569,1.7519,1.7513,1.7507,1.7496,1.7562,1.7562,1.762,1.762,1.7621]}]]